When you browse on this site, cookies collect data to enhance your experience and personalize the content and advertising you see.
Visit our Privacy Policy to learn more. By continuing to use the site, you agree to this use of cookies and data.
  • In Schweiz
  • Länderverzeichnis
  • Für 7 Tage
  • Wassertemperatur
  • Satellitenkarten
  • Wetterkarte
  • Widgets
  • user-avatar
    Anmelden

    Stündliche Wetter Arbela

    Heute, 25 Juni, Dienstag

    Zeit Temperatur Niederschläge Wind Luftdruck Luftfeuchtigkeit
    00:00 +32°C° 0 mm 2 m/S 721 mmHg 15%
    01:00 +31°C° 0 mm 2 m/S 721 mmHg 17%
    02:00 +30°C° 0 mm 2 m/S 721 mmHg 18%
    03:00 +30°C° 0 mm 2 m/S 720 mmHg 20%
    04:00 +30°C° 0 mm 1 m/S 721 mmHg 20%
    05:00 +30°C° 0 mm 1 m/S 721 mmHg 20%
    06:00 +31°C° 0 mm 1 m/S 721 mmHg 21%
    07:00 +34°C° 0 mm 1 m/S 721 mmHg 18%
    08:00 +36°C° 0 mm 1 m/S 722 mmHg 15%
    09:00 +40°C° 0 mm 2 m/S 722 mmHg 12%
    10:00 +41°C° 0 mm 2 m/S 722 mmHg 10%
    11:00 +44°C° 0 mm 3 m/S 722 mmHg 9%
    12:00 +45°C° 0 mm 4 m/S 722 mmHg 8%
    13:00 +47°C° 0 mm 4 m/S 722 mmHg 7%
    14:00 +47°C° 0 mm 4 m/S 721 mmHg 6%
    15:00 +48°C° 0 mm 4 m/S 721 mmHg 6%
    16:00 +48°C° 0 mm 4 m/S 721 mmHg 6%
    17:00 +47°C° 0 mm 4 m/S 721 mmHg 6%
    18:00 +47°C° 0 mm 4 m/S 721 mmHg 6%
    19:00 +43°C° 0 mm 3 m/S 721 mmHg 7%
    20:00 +39°C° 0 mm 3 m/S 721 mmHg 9%
    21:00 +37°C° 0 mm 2 m/S 721 mmHg 10%
    22:00 +36°C° 0 mm 2 m/S 721 mmHg 11%
    23:00 +35°C° 0 mm 2 m/S 721 mmHg 12%

    Morgen, 26 Juni, Mittwoch

    Zeit Temperatur Niederschläge Wind Luftdruck Luftfeuchtigkeit
    00:00 +34°C° 0 mm 2 m/S 721 mmHg 13%
    01:00 +32°C° 0 mm 2 m/S 720 mmHg 14%
    02:00 +32°C° 0 mm 2 m/S 720 mmHg 15%
    03:00 +31°C° 0 mm 1 m/S 720 mmHg 16%
    04:00 +31°C° 0 mm 1 m/S 720 mmHg 16%
    05:00 +32°C° 0 mm 1 m/S 721 mmHg 16%
    06:00 +32°C° 0 mm 1 m/S 721 mmHg 16%
    07:00 +35°C° 0 mm 1 m/S 721 mmHg 14%
    08:00 +39°C° 0 mm 1 m/S 721 mmHg 11%
    09:00 +42°C° 0 mm 1 m/S 722 mmHg 9%
    10:00 +43°C° 0 mm 2 m/S 721 mmHg 8%
    11:00 +46°C° 0 mm 3 m/S 721 mmHg 7%
    12:00 +48°C° 0 mm 4 m/S 721 mmHg 6%
    13:00 +49°C° 0 mm 4 m/S 721 mmHg 6%
    14:00 +49°C° 0 mm 4 m/S 720 mmHg 6%
    15:00 +50°C° 0 mm 5 m/S 720 mmHg 5%
    16:00 +49°C° 0 mm 4 m/S 719 mmHg 5%
    17:00 +48°C° 0 mm 3 m/S 719 mmHg 6%
    18:00 +47°C° 0 mm 3 m/S 719 mmHg 6%
    19:00 +44°C° 0 mm 3 m/S 719 mmHg 7%
    20:00 +42°C° 0 mm 3 m/S 719 mmHg 7%
    21:00 +39°C° 0 mm 3 m/S 719 mmHg 8%
    22:00 +37°C° 0 mm 2 m/S 719 mmHg 9%
    23:00 +36°C° 0 mm 2 m/S 719 mmHg 10%

    übermorgen, 27 Juni, Donnerstag

    Zeit Temperatur Niederschläge Wind Luftdruck Luftfeuchtigkeit
    00:00 +34°C° 0 mm 1 m/S 718 mmHg 11%
    01:00 +33°C° 0 mm 1 m/S 718 mmHg 12%
    02:00 +33°C° 0 mm 1 m/S 718 mmHg 13%
    03:00 +32°C° 0 mm 1 m/S 718 mmHg 14%
    04:00 +33°C° 0 mm 1 m/S 718 mmHg 14%
    05:00 +33°C° 0 mm 1 m/S 718 mmHg 14%
    06:00 +34°C° 0 mm 1 m/S 718 mmHg 15%
    07:00 +36°C° 0 mm 1 m/S 718 mmHg 13%
    08:00 +40°C° 0 mm 1 m/S 718 mmHg 11%
    09:00 +43°C° 0 mm 1 m/S 719 mmHg 9%
    10:00 +46°C° 0 mm 2 m/S 718 mmHg 8%
    11:00 +47°C° 0 mm 3 m/S 718 mmHg 8%
    12:00 +49°C° 0 mm 4 m/S 718 mmHg 7%
    13:00 +50°C° 0 mm 4 m/S 717 mmHg 6%
    14:00 +50°C° 0 mm 5 m/S 717 mmHg 6%
    15:00 +50°C° 0 mm 5 m/S 716 mmHg 6%
    16:00 +50°C° 0 mm 5 m/S 716 mmHg 6%
    17:00 +49°C° 0 mm 4 m/S 715 mmHg 6%
    18:00 +48°C° 0 mm 4 m/S 715 mmHg 7%
    19:00 +45°C° 0 mm 4 m/S 715 mmHg 8%
    20:00 +42°C° 0 mm 3 m/S 715 mmHg 10%
    21:00 +39°C° 0 mm 3 m/S 715 mmHg 11%
    22:00 +37°C° 0 mm 3 m/S 715 mmHg 13%
    23:00 +36°C° 0 mm 2 m/S 715 mmHg 15%

    28 Juni, Freitag

    Zeit Temperatur Niederschläge Wind Luftdruck Luftfeuchtigkeit
    00:00 +35°C° 0 mm 2 m/S 715 mmHg 16%
    01:00 +34°C° 0 mm 2 m/S 715 mmHg 17%
    02:00 +34°C° 0 mm 2 m/S 714 mmHg 18%
    03:00 +32°C° 0 mm 1 m/S 714 mmHg 19%
    04:00 +32°C° 0 mm 1 m/S 714 mmHg 21%
    05:00 +32°C° 0 mm 1 m/S 714 mmHg 23%
    06:00 +32°C° 0 mm 1 m/S 714 mmHg 25%
    07:00 +35°C° 0 mm 2 m/S 715 mmHg 24%
    08:00 +37°C° 0 mm 2 m/S 715 mmHg 23%
    09:00 +38°C° 0 mm 3 m/S 715 mmHg 22%
    10:00 +41°C° 0 mm 4 m/S 715 mmHg 19%
    11:00 +42°C° 0 mm 5 m/S 715 mmHg 17%
    12:00 +45°C° 0 mm 6 m/S 715 mmHg 15%
    13:00 +45°C° 0 mm 6 m/S 714 mmHg 14%
    14:00 +46°C° 0 mm 7 m/S 714 mmHg 13%
    15:00 +46°C° 0 mm 7 m/S 714 mmHg 13%
    16:00 +45°C° 0 mm 7 m/S 714 mmHg 12%
    17:00 +45°C° 0 mm 7 m/S 714 mmHg 12%
    18:00 +44°C° 0 mm 7 m/S 714 mmHg 12%
    19:00 +40°C° 0 mm 6 m/S 714 mmHg 14%
    20:00 +37°C° 0 mm 4 m/S 714 mmHg 16%
    21:00 +35°C° 0 mm 3 m/S 715 mmHg 19%
    22:00 +34°C° 0 mm 2 m/S 715 mmHg 20%
    23:00 +32°C° 0 mm 1 m/S 715 mmHg 22%

    29 Juni, Samstag

    Zeit Temperatur Niederschläge Wind Luftdruck Luftfeuchtigkeit
    00:00 +31°C° 0 mm 1 m/S 715 mmHg 23%
    01:00 +30°C° 0 mm 1 m/S 715 mmHg 24%
    02:00 +30°C° 0 mm 1 m/S 715 mmHg 25%
    03:00 +30°C° 0 mm 1 m/S 715 mmHg 26%
    04:00 +30°C° 0 mm 1 m/S 715 mmHg 26%
    05:00 +31°C° 0 mm 2 m/S 715 mmHg 26%
    06:00 +31°C° 0 mm 2 m/S 716 mmHg 26%
    07:00 +34°C° 0 mm 2 m/S 716 mmHg 23%
    08:00 +37°C° 0 mm 3 m/S 716 mmHg 20%
    09:00 +40°C° 0 mm 4 m/S 716 mmHg 18%
    10:00 +41°C° 0 mm 4 m/S 716 mmHg 17%
    11:00 +42°C° 0 mm 4 m/S 716 mmHg 16%
    12:00 +43°C° 0 mm 5 m/S 716 mmHg 16%
    13:00 +43°C° 0 mm 5 m/S 716 mmHg 15%
    14:00 +45°C° 0 mm 6 m/S 715 mmHg 13%
    15:00 +45°C° 0 mm 7 m/S 715 mmHg 12%
    16:00 +45°C° 0 mm 6 m/S 715 mmHg 13%
    17:00 +44°C° 0 mm 6 m/S 715 mmHg 14%
    18:00 +44°C° 0 mm 6 m/S 715 mmHg 14%
    19:00 +41°C° 0 mm 5 m/S 715 mmHg 16%
    20:00 +38°C° 0 mm 4 m/S 715 mmHg 18%
    21:00 +36°C° 0 mm 4 m/S 715 mmHg 19%
    22:00 +35°C° 0 mm 3 m/S 715 mmHg 21%
    23:00 +34°C° 0 mm 2 m/S 715 mmHg 23%

    30 Juni, Sonntag

    Zeit Temperatur Niederschläge Wind Luftdruck Luftfeuchtigkeit
    00:00 +32°C° 0 mm 1 m/S 715 mmHg 24%
    01:00 +31°C° 0 mm 1 m/S 715 mmHg 26%
    02:00 +30°C° 0 mm 1 m/S 715 mmHg 27%
    03:00 +29°C° 0 mm 1 m/S 715 mmHg 28%
    04:00 +30°C° 0 mm 1 m/S 715 mmHg 28%
    05:00 +31°C° 0 mm 1 m/S 715 mmHg 27%
    06:00 +31°C° 0 mm 1 m/S 716 mmHg 27%
    07:00 +34°C° 0 mm 2 m/S 716 mmHg 25%
    08:00 +36°C° 0 mm 3 m/S 716 mmHg 23%
    09:00 +38°C° 0 mm 3 m/S 716 mmHg 21%
    10:00 +40°C° 0 mm 4 m/S 717 mmHg 19%
    11:00 +42°C° 0 mm 5 m/S 717 mmHg 17%
    12:00 +44°C° 0 mm 6 m/S 717 mmHg 15%
    13:00 +44°C° 0 mm 6 m/S 716 mmHg 14%
    14:00 +44°C° 0 mm 6 m/S 716 mmHg 13%
    15:00 +45°C° 0 mm 6 m/S 716 mmHg 11%
    16:00 +44°C° 0 mm 6 m/S 716 mmHg 12%
    17:00 +44°C° 0 mm 6 m/S 716 mmHg 12%
    18:00 +42°C° 0 mm 6 m/S 716 mmHg 12%
    19:00 +40°C° 0 mm 5 m/S 716 mmHg 14%
    20:00 +37°C° 0 mm 4 m/S 716 mmHg 16%
    21:00 +35°C° 0 mm 4 m/S 717 mmHg 18%
    22:00 +34°C° 0 mm 3 m/S 717 mmHg 21%
    23:00 +32°C° 0 mm 2 m/S 717 mmHg 23%
    Mehr zeigen